Location: Falniów
(50.3639°N, 19.9642°E)
Time: 13:44:55
(UTC+00:00)

Cosmos 2082 Rocket - Pass Details

Date: 23 April 2026
Orbit: 831 x 853 km, 71.0° (Epoch: 19 May)

Event Time Altitude Azimuth Distance (km) Brightness Sun altitude
Exits shadow 00:44:51 30° 262° (W) 1,487 3.1 -21.4°
Maximum altitude 00:47:02 42° 309° (NW) 1,199 3.0 -21.2°
Drops below altitude 10° 00:52:28 10° 21° (NNE) 2,494 5.7 -20.7°
Sets 00:55:05 0° 28° (NNE) 3,432 6.9 -20.4°
